Belmar-Farmingdale, NJ

1:11 PM EDT on June 26, 2017 (GMT -0400)
Allaire

Weather History for KBLM - August, 2013

Change the Weather History Date:

Tuesday, August 27, 2013

  Actual Average Record
Temperature  
Mean Temperature 78 °F -  
Max Temperature 87 °F 77 °F 87 °F (2003)
Min Temperature 69 °F 62 °F 55 °F (2008)
Cooling Degree Days 13    
Growing Degree Days 28 (Base 50)    
Moisture  
Dew Point 67 °F    
Average Humidity 69    
Maximum Humidity 88    
Minimum Humidity 46    
Precipitation  
Precipitation 0.02 in - - ()
Sea Level Pressure  
Sea Level Pressure 29.89 in    
Wind  
Wind Speed 8 mph (WNW)    
Max Wind Speed 17 mph    
Max Gust Speed 22 mph    
Visibility 10 miles    
Events      
Averages and records for this station are not official NWS values.
T = Trace of Precipitation, MM = Missing Value Source: NWS Daily Summary

Daily Weather History Graph

Daily Weather History Graph

Search for Another Location

Airport or City:

Trip Planner

Search our weather history database for the weather conditions in past years. The results will help you decide how hot, cold, wet, or windy it might be!

Date:

Astronomy

Aug. 27, 2013 Rise Set
Actual Time 6:19 AM EDT 7:35 PM EDT
Civil Twilight 5:51 AM EDT 8:03 PM EDT
Nautical Twilight 5:17 AM EDT 8:37 PM EDT
Astronomical Twilight 4:42 AM EDT 9:12 PM EDT
Moon 11:26 PM EDT (8/27) 1:15 PM EDT (8/27)
Length of Visible Light 14h 12m
Length of Day
13h 16m
Waning Gibbous, 57% of the Moon is Illuminated
Aug 27
Waning Gibbous
Aug 28
Last Quarter
Sep 5
New
Sep 12
First Quarter
Sep 19
Full

Hourly Weather History & Observations

Time (EDT) Temp. Heat Index Dew Point Humidity Pressure Visibility Wind Dir Wind Speed Gust Speed Precip Events Conditions
12:15 AM 73.4 °F - 64.4 °F 73% 29.95 in 10.0 mi WSW 8.1 mph - N/A   Mostly Cloudy
12:35 AM 73.4 °F - 66.2 °F 78% 29.94 in 10.0 mi SW 6.9 mph - N/A   Overcast
12:55 AM 71.6 °F - 66.2 °F 83% 29.94 in 10.0 mi West 5.8 mph - N/A   Mostly Cloudy
1:15 AM 71.6 °F - 66.2 °F 83% 29.94 in 10.0 mi WSW 8.1 mph - 0.01 in   Mostly Cloudy
1:35 AM 71.6 °F - 66.2 °F 83% 29.93 in 10.0 mi WSW 6.9 mph - 0.01 in   Scattered Clouds
1:55 AM 69.8 °F - 66.2 °F 88% 29.92 in 10.0 mi WSW 6.9 mph - 0.01 in   Scattered Clouds
2:15 AM 69.8 °F - 66.2 °F 88% 29.92 in 10.0 mi WSW 6.9 mph - N/A   Overcast
2:35 AM 71.6 °F - 66.2 °F 83% 29.92 in 10.0 mi WSW 9.2 mph - N/A   Overcast
2:55 AM 69.8 °F - 66.2 °F 88% 29.91 in 10.0 mi West 5.8 mph - N/A   Overcast
3:15 AM 71.6 °F - 66.2 °F 83% 29.90 in 10.0 mi WSW 5.8 mph - 0.01 in   Overcast
3:35 AM 71.6 °F - 66.2 °F 83% 29.89 in 10.0 mi WSW 4.6 mph - 0.01 in   Overcast
3:55 AM 71.6 °F - 66.2 °F 83% 29.87 in 10.0 mi WSW 8.1 mph - 0.01 in   Overcast
4:15 AM 71.6 °F - 66.2 °F 83% 29.87 in 10.0 mi WSW 6.9 mph - N/A   Overcast
4:35 AM 71.6 °F - 66.2 °F 83% 29.87 in 10.0 mi WSW 8.1 mph - N/A   Overcast
4:55 AM 71.6 °F - 66.2 °F 83% 29.87 in 10.0 mi West 6.9 mph - N/A   Overcast
5:15 AM 71.6 °F - 66.2 °F 83% 29.87 in 10.0 mi West 9.2 mph - N/A   Overcast
5:35 AM 71.6 °F - 66.2 °F 83% 29.87 in 10.0 mi West 8.1 mph - N/A   Mostly Cloudy
5:55 AM 71.6 °F - 66.2 °F 83% 29.86 in 10.0 mi West 8.1 mph - N/A   Scattered Clouds
6:15 AM 71.6 °F - 66.2 °F 83% 29.86 in 10.0 mi West 9.2 mph - N/A   Scattered Clouds
6:35 AM 71.6 °F - 66.2 °F 83% 29.86 in 10.0 mi West 9.2 mph - N/A   Overcast
6:55 AM 71.6 °F - 66.2 °F 83% 29.87 in 10.0 mi West 9.2 mph - N/A   Overcast
7:15 AM 71.6 °F - 66.2 °F 83% 29.87 in 10.0 mi West 9.2 mph - N/A   Overcast
7:35 AM 73.4 °F - 66.2 °F 78% 29.87 in 10.0 mi West 11.5 mph 19.6 mph N/A   Overcast
7:55 AM 73.4 °F - 66.2 °F 78% 29.88 in 10.0 mi WNW 13.8 mph - N/A   Overcast
8:15 AM 73.4 °F - 66.2 °F 78% 29.88 in 10.0 mi NW 12.7 mph 17.3 mph N/A   Overcast
8:35 AM 75.2 °F - 66.2 °F 73% 29.88 in 10.0 mi NW 12.7 mph 18.4 mph N/A   Scattered Clouds
8:55 AM 75.2 °F - 66.2 °F 73% 29.88 in 10.0 mi WNW 10.4 mph 19.6 mph N/A   Scattered Clouds
9:15 AM 75.2 °F - 66.2 °F 73% 29.88 in 10.0 mi NW 13.8 mph - N/A   Mostly Cloudy
9:35 AM 77.0 °F - 66.2 °F 69% 29.88 in 10.0 mi NNW 12.7 mph 17.3 mph N/A   Overcast
9:55 AM 78.8 °F - 66.2 °F 65% 29.88 in 10.0 mi NNW 13.8 mph - N/A   Mostly Cloudy
10:15 AM 78.8 °F - 66.2 °F 65% 29.89 in 10.0 mi NW 13.8 mph - N/A   Mostly Cloudy
10:35 AM 78.8 °F - 66.2 °F 65% 29.89 in 10.0 mi North 13.8 mph 21.9 mph N/A   Overcast
10:55 AM 78.8 °F - 66.2 °F 65% 29.89 in 10.0 mi NNW 17.3 mph - N/A   Mostly Cloudy
11:15 AM 78.8 °F - 66.2 °F 65% 29.89 in 10.0 mi North 11.5 mph 19.6 mph N/A   Mostly Cloudy
11:35 AM 80.6 °F 82.7 °F 66.2 °F 61% 29.90 in 10.0 mi NNW 12.7 mph - N/A   Mostly Cloudy
11:55 AM 80.6 °F 82.7 °F 66.2 °F 61% 29.90 in 10.0 mi NNW 11.5 mph - N/A   Mostly Cloudy
12:15 PM 82.4 °F 84.6 °F 66.2 °F 58% 29.89 in 10.0 mi NNW 12.7 mph - N/A   Scattered Clouds
12:35 PM 84.2 °F 86.6 °F 66.2 °F 55% 29.89 in 10.0 mi NNW 12.7 mph 20.7 mph N/A   Scattered Clouds
12:55 PM 84.2 °F 86.6 °F 66.2 °F 55% 29.89 in 10.0 mi NNW 12.7 mph - N/A   Mostly Cloudy
1:15 PM 84.2 °F 86.6 °F 66.2 °F 55% 29.90 in 10.0 mi NNW 12.7 mph 18.4 mph N/A   Mostly Cloudy
1:35 PM 84.2 °F 86.6 °F 66.2 °F 55% 29.89 in 10.0 mi NNW 13.8 mph - N/A   Scattered Clouds
1:55 PM 84.2 °F 86.6 °F 66.2 °F 55% 29.89 in 10.0 mi North 12.7 mph 16.1 mph N/A   Scattered Clouds
2:15 PM 86.0 °F 88.2 °F 66.2 °F 51% 29.89 in 10.0 mi North 16.1 mph - N/A   Scattered Clouds
2:35 PM 84.2 °F 86.6 °F 66.2 °F 55% 29.88 in 10.0 mi North 12.7 mph - N/A   Scattered Clouds
2:55 PM 86.0 °F 88.2 °F 66.2 °F 51% 29.88 in 10.0 mi NNW 10.4 mph - N/A   Partly Cloudy
3:15 PM 86.0 °F 88.2 °F 66.2 °F 51% 29.87 in 10.0 mi North 9.2 mph - N/A   Clear
3:35 PM 86.0 °F 88.2 °F 66.2 °F 51% 29.87 in 10.0 mi NNW 11.5 mph - N/A   Clear
3:55 PM 87.8 °F 90.4 °F 66.2 °F 49% 29.87 in 10.0 mi NNW 8.1 mph - N/A   Clear
4:15 PM 87.8 °F 90.4 °F 66.2 °F 49% 29.87 in 10.0 mi NNW 10.4 mph - N/A   Clear
4:35 PM 87.8 °F 89.4 °F 64.4 °F 46% 29.86 in 10.0 mi NNW 11.5 mph - N/A   Clear
4:55 PM 87.8 °F 89.4 °F 64.4 °F 46% 29.86 in 10.0 mi NNW 10.4 mph - N/A   Clear
5:15 PM 87.8 °F 90.4 °F 66.2 °F 49% 29.87 in 10.0 mi NNW 8.1 mph - N/A   Clear
5:35 PM 86.0 °F 87.3 °F 64.4 °F 48% 29.87 in 10.0 mi NNW 5.8 mph - N/A   Clear
5:55 PM 86.0 °F 87.3 °F 64.4 °F 48% 29.87 in 10.0 mi WNW 5.8 mph - N/A   Clear
6:15 PM 84.2 °F 86.6 °F 66.2 °F 55% 29.87 in 10.0 mi North 3.5 mph - N/A   Partly Cloudy
6:35 PM 84.2 °F 85.6 °F 64.4 °F 51% 29.87 in 10.0 mi North 3.5 mph - N/A   Clear
6:55 PM 82.4 °F 85.4 °F 68.0 °F 62% 29.87 in 10.0 mi West 4.6 mph - N/A   Scattered Clouds
7:15 PM 82.4 °F 86.3 °F 69.8 °F 66% 29.88 in 10.0 mi West 3.5 mph - N/A   Mostly Cloudy
7:35 PM 82.4 °F 86.3 °F 69.8 °F 66% 29.89 in 10.0 mi West 3.5 mph - N/A   Mostly Cloudy
7:55 PM 80.6 °F 83.9 °F 69.8 °F 70% 29.89 in 10.0 mi West 4.6 mph - N/A   Scattered Clouds
8:15 PM 80.6 °F 83.2 °F 68.0 °F 65% 29.90 in 10.0 mi West 3.5 mph - N/A   Partly Cloudy
8:35 PM 80.6 °F 83.2 °F 68.0 °F 65% 29.90 in 10.0 mi West 3.5 mph - N/A   Partly Cloudy
8:55 PM 80.6 °F 83.2 °F 68.0 °F 65% 29.90 in 10.0 mi Calm Calm - N/A   Clear
9:15 PM 75.2 °F - 68.0 °F 78% 29.90 in 10.0 mi Calm Calm - N/A   Clear
9:35 PM 75.2 °F - 68.0 °F 78% 29.90 in 10.0 mi Calm Calm - N/A   Clear
9:55 PM 75.2 °F - 68.0 °F 78% 29.91 in 10.0 mi Calm Calm - N/A   Clear
10:15 PM 75.2 °F - 68.0 °F 78% 29.91 in 10.0 mi SE 3.5 mph - N/A   Partly Cloudy
10:35 PM 75.2 °F - 69.8 °F 83% 29.92 in 10.0 mi SE 3.5 mph - N/A   Partly Cloudy
10:55 PM 75.2 °F - 69.8 °F 83% 29.92 in 10.0 mi Calm Calm - N/A   Scattered Clouds
11:15 PM 77.0 °F - 69.8 °F 78% 29.92 in 10.0 mi South 5.8 mph - N/A   Mostly Cloudy
11:35 PM 75.2 °F - 68.0 °F 78% 29.92 in 10.0 mi SSE 5.8 mph - N/A   Mostly Cloudy
11:55 PM 75.2 °F - 68.0 °F 78% 29.92 in 10.0 mi South 5.8 mph - N/A   Mostly Cloudy